Terminal Aerodrome Forecast
Issued by NWS Denver/Boulder, CO

Home | Current Version | Previous Version | Text Only | Print | Product List | Glossary On
Versions: 1 2 3 4 5 6 7 8 9 10 11 12 13 14 15 16 17 18 19 20 21 22 23 24 25 26 27 28 29 30 31 32 33 34 35 36 37 38 39 40 41 42 43 44 45 46 47 48 49 50
000
FTUS45 KBOU 222154 AAA
TAFDEN
TAF AMD
KDEN 222154Z 2222/2324 VRB06KT P6SM VCSH FEW070 SCT120 BKN200
     FM222245 31014G24KT P6SM VCSH FEW060 SCT120 BKN200
     FM230100 14006KT P6SM SCT080 BKN200
     FM230500 20007KT P6SM SCT100 BKN200
     FM231800 16007KT P6SM SCT200=

USA.gov is the U.S. government's official web portal to all federal, state and local government web resources and services.